Regional Weather Roundup
Issued by NWS

Home | Current Version | Previous Version | Text Only | Print | Product List | Glossary On
Versions: 1 2 3 4 5 6 7 8 9 10 11 12 13 14 15 16 17 18 19 20 21 22 23 24 25 26 27 28 29 30 31 32 33 34 35 36 37 38 39 40 41 42 43 44 45 46 47 48 49 50
000
ASUS45 KABQ 240210
RWRNM
NEW MEXICO REGIONAL WEATHER ROUNDUP
NATIONAL WEATHER SERVICE ALBUQUERQUE NM
800 PM MDT TUE AUG 23 2016

NOTE: "FAIR" MEANS FEW OR NO CLOUDS BELOW 12,000 FEET AGL WITH NO
       SIGNIFICANT WEATHER OR OBSTRUCTIONS TO VISION.

      THIS PRODUCT IS RELEASED AS TWO VERSIONS.  ONE VERSION NEAR
      THE TOP OF THE HOUR CONTAINING PRELIMINARY DATA FROM ALBUQUERQUE
      AND OTHER STATIONS.  A FINAL VERSION WITH ADDITIONAL DATA IS
      ISSUED ABOUT 10 MINUTES AFTER THE HOUR.

NMZ501-503-504-510>518-240300-
NORTHWEST PLATEAU/NORTHCENTRAL MOUNTAINS

CITY           SKY/WX    TMP DP  RH WIND       PRES   REMARKS
FARMINGTON     FAIR      62  51  67 N10       30.21S
LOS ALAMOS     FAIR      61  47  60 CALM      30.29R
SANTA FE       FAIR      66  48  52 N8        30.21R
TAOS           FAIR      59  43  55 NE5       30.29R
ANGEL FIRE     FAIR      53  43  69 SW6       30.36R

$$
NMZ402-403-502-505>509-240300-
WESTCENTRAL MOUNTAINS/SOUTHWEST MOUNTAINS

CITY           SKY/WX    TMP DP  RH WIND       PRES   REMARKS
GALLUP         CLOUDY    57  52  83 CALM      30.29S
GRANTS         FAIR      61  47  60 NW14G21   30.28S
SILVER CITY    FAIR      75  39  27 W10       30.17R

$$
NMZ407-409-411-412-240300-
SOUTHERN DESERTS

CITY           SKY/WX    TMP DP  RH WIND       PRES   REMARKS
LORDSBURG      FAIR      81  34  18 W12G22    30.10R
DEMING         FAIR      82  41  23 W10       30.09R
LAS CRUCES     CLOUDY    84  42  22 W12       30.10R
HOLLOMAN AFB   FAIR      82  57  41 S14       30.04R
ALAMOGORDO     FAIR      77  59  53 S10       30.07R
T OR C         FAIR      82  40  22 W10       30.09R

$$
NMZ519>523-240300-
CENTRAL VALLEYS/CENTRAL HIGHLANDS

CITY           SKY/WX    TMP DP  RH WIND       PRES   REMARKS
ALBUQUERQUE    MOCLDY    76  46  34 N12       30.15R
DOUBLE EAGLE   MOCLDY    72  46  40 NW10      30.20R
MORIARTY ARPT  CLOUDY    70  39  32 NW5       30.22R
CLINES CORNERS FAIR      64  44  48 W10       30.26R
BELEN          MOCLDY    74  41  30 NW16      30.16R
SOCORRO        FAIR      77  44  30 N13       30.10R

$$
NMZ524>526-539-540-240300-
SOUTHCENTRAL MOUNTAINS

CITY           SKY/WX    TMP DP  RH WIND       PRES   REMARKS
RUIDOSO          N/A     64  55  72 S9        30.28R

$$
NMZ527>531-240300-
NORTHEAST HIGHLANDS/NORTHEAST PLAINS

CITY           SKY/WX    TMP DP  RH WIND       PRES   REMARKS
LAS VEGAS      FAIR      64  39  39 W7        30.23R
RATON          FAIR      74  41  30 NW17      30.12R
CLAYTON        FAIR      75  44  33 SW12      30.03R

$$
NMZ532>537-240300-
EASTCENTRAL PLAINS

CITY           SKY/WX    TMP DP  RH WIND       PRES   REMARKS
TUCUMCARI      FAIR      84  53  34 SW15      30.00R
CANNON AFB     FAIR      78  60  54 S21G33    30.08R
CLOVIS AIRPORT FAIR      75  57  53 S20G26    30.08R

$$
NMZ028-029-538-240300-
SOUTHEAST PLAINS

CITY           SKY/WX    TMP DP  RH WIND       PRES   REMARKS
ROSWELL        FAIR      71  64  78 S10       30.07R
ARTESIA        FAIR      73  63  68 S16       30.08R
CARLSBAD       LGT RAIN  66  63  90 S9        30.07R
HOBBS          FAIR      75  59  57 S13       30.10F


$$




USA.gov is the U.S. government's official web portal to all federal, state and local government web resources and services.